Location: Unspecified
(43.0000°N, 0.0000°E)
Time: 04:57:27
(UTC+00:00)

PicSat - Pass Details

Date: 25 July 2019
Orbit: 486 x 500 km, 97.5° (Epoch: 21 August)

Event Time Altitude Azimuth Distance (km) Brightness Sun altitude
Exits shadow 21:50:28 48° 209° (SSW) 649 ? -20.0°
Maximum altitude 21:51:12 61° 259° (W) 566 ? -20.1°
Drops below altitude 10° 21:54:48 10° 341° (NNW) 1,693 ? -20.5°
Sets 21:56:54 0° 345° (NNW) 2,577 ? -20.7°
